Observations for Trim Market St
| Time | AQI | Temp °C | Hum % | Pres Pa | CO μg/m³ | H₂S μg/m³ | NO μg/m³ | NO₂ μg/m³ | O₃ μg/m³ | SO₂ μg/m³ | PM1 μg/m³ | PM2.5 μg/m³ | PM10 μg/m³ |
|---|---|---|---|---|---|---|---|---|---|---|---|---|---|
| Thursday 13 August 2026 | |||||||||||||
| 22:27 | 2 | 26 | 57 | 57,700 | 0.23 | 7.15 | 0.67 | 25.57 | 50.07 | 0 | 0.71 | 3.14 | 4.02 |
| 22:26 | 2 | 26 | 57 | 57,670 | 0.21 | 5.79 | 0.68 | 22.12 | 50.96 | 0 | 0 | 2.14 | 3.31 |
| 22:23 | 2 | 26 | 57 | 57,515 | 0 | 2.59 | 0.74 | 24.63 | 49.86 | 0 | 0 | 2.66 | 3.3 |
| 22:21 | 2 | 26.1 | 57 | 57,431 | 0 | 2.59 | 0.71 | 21.56 | 51.53 | 0 | 1.43 | 3.17 | 4.71 |
| 22:20 | 2 | 26.1 | 57 | 57,421 | 0 | 1.87 | 0.73 | 23.04 | 51.96 | 0 | 1.43 | 3.68 | 5.41 |
| 22:18 | 2 | 26.2 | 57 | 57,411 | 0 | 5.17 | 0.69 | 29.63 | 46.87 | 0 | 0.71 | 2.68 | 3.29 |
| 22:17 | 2 | 26.2 | 56 | 57,348 | 0 | 6.1 | 0.68 | 34.31 | 47.19 | 0 | 1.43 | 4.2 | 5.41 |
| 22:16 | 2 | 26.2 | 56 | 57,280 | 0 | 3.81 | 0.7 | 24.2 | 51.21 | 0 | 0.71 | 2.68 | 3.99 |
| 22:14 | 2 | 26.2 | 56 | 57,241 | 0 | 3.94 | 0.67 | 18.53 | 53.01 | 0 | 2.14 | 4.21 | 6.11 |
| 22:12 | 2 | 26.3 | 56 | 57,179 | 0.19 | 12.65 | 0.66 | 40.01 | 44.29 | 0 | 1.43 | 3.71 | 4.69 |
| 22:11 | 2 | 26.3 | 56 | 57,117 | 1.77 | 24.21 | 0.63 | 21.91 | 52.14 | 0 | 0.71 | 2.7 | 3.27 |
| 22:10 | 2 | 26.3 | 56 | 57,098 | 6.33 | 27.64 | 0.63 | 23.11 | 52.4 | 0 | 0.71 | 4.22 | 6.11 |
| 22:09 | 2 | 26.3 | 56 | 57,073 | 0 | 4.5 | 0.64 | 27.3 | 50.25 | 0 | 0.71 | 3.72 | 5.4 |
| 22:08 | 2 | 26.3 | 56 | 57,030 | 0 | 4.5 | 0.63 | 19.47 | 53.76 | 0 | 1.43 | 3.22 | 3.97 |
| 22:05 | 2 | 26.4 | 56 | 56,937 | 0 | 3.67 | 0.65 | 19.1 | 55.64 | 0 | 2.14 | 4.24 | 5.39 |
| 22:01 | 2 | 26.4 | 55 | 56,922 | 0 | 4.81 | 0.63 | 22.89 | 53.01 | 0 | 0.71 | 3.24 | 5.39 |
| 21:57 | 2 | 26.5 | 55 | 56,878 | 0 | 7.53 | 0.78 | 37.82 | 46.31 | 0 | 1.43 | 4.26 | 6.1 |
| 21:55 | 2 | 26.6 | 55 | 56,830 | 0 | 8.08 | 0.76 | 46.88 | 40.92 | 0 | 0.71 | 3.77 | 4.66 |
| 21:53 | 2 | 26.6 | 55 | 56,703 | 0 | 9.55 | 0.63 | 36.84 | 47.73 | 0 | 1.43 | 3.78 | 4.66 |
| 21:47 | 3 | 26.8 | 54 | 56,220 | 0 | 6.61 | 0.69 | 37.91 | 45.83 | 0 | 2.14 | 3.82 | 4.64 |